| time (UTC) | temp C | wind direction | speed KPH | gust KPH | rain 1hr cm | rain 24hr cm | rain mn cm | humidity % | barometer mb |
| 20260508200504 | 21 | 228 | 16.1 | 22.5 | 0.00 | 0.00 | 0.00 | 41 | 1011.0 |
| 20260508200004 | 21 | 209 | 17.7 | 22.5 | 0.00 | 0.00 | 0.00 | 42 | 1010.9 |
| 20260508195505 | 21 | 223 | 14.5 | 19.3 | 0.00 | 0.00 | 0.00 | 45 | 1010.7 |
| 20260508195005 | 21 | 224 | 12.9 | 30.6 | 0.00 | 0.00 | 0.00 | 44 | 1011.3 |
| 20260508194505 | 21 | 213 | 12.9 | 30.6 | 0.00 | 0.00 | 0.00 | 44 | 1010.9 |
| 20260508194004 | 21 | 226 | 14.5 | 17.7 | 0.00 | 0.00 | 0.00 | 45 | 1011.0 |
| 20260508193504 | 21 | 233 | 9.7 | 16.1 | 0.00 | 0.00 | 0.00 | 45 | 1011.1 |
| 20260508193004 | 21 | 225 | 9.7 | 19.3 | 0.00 | 0.00 | 0.00 | 44 | 1011.2 |
| 20260508192504 | 20 | 215 | 9.7 | 19.3 | 0.00 | 0.00 | 0.00 | 45 | 1011.1 |
| 20260508192004 | 20 | 211 | 12.9 | 20.9 | 0.00 | 0.00 | 0.00 | 44 | 1011.2 |
| 20260508191504 | 20 | 222 | 12.9 | 24.1 | 0.00 | 0.00 | 0.00 | 44 | 1011.4 |
| 20260508191008 | 20 | 232 | 12.9 | 27.4 | 0.00 | 0.00 | 0.00 | 45 | 1011.5 |
| 20260508190504 | 20 | 223 | 11.3 | 27.4 | 0.00 | 0.00 | 0.00 | 44 | 1011.6 |
| 20260508190004 | 21 | 210 | 17.7 | 27.4 | 0.00 | 0.00 | 0.00 | 44 | 1011.6 |
| 20260508185504 | 21 | 220 | 14.5 | 20.9 | 0.00 | 0.00 | 0.00 | 45 | 1011.7 |
| 20260508185004 | 21 | 227 | 14.5 | 20.9 | 0.00 | 0.00 | 0.00 | 45 | 1011.8 |
| 20260508184504 | 20 | 234 | 11.3 | 20.9 | 0.00 | 0.00 | 0.00 | 45 | 1011.9 |
| 20260508184005 | 20 | 236 | 9.7 | 27.4 | 0.00 | 0.00 | 0.00 | 44 | 1012.0 |
| 20260508183003 | 20 | 245 | 16.1 | 24.1 | 0.00 | 0.00 | 0.00 | 44 | 1012.2 |
| 20260508182503 | 20 | 259 | 17.7 | 24.1 | 0.00 | 0.00 | 0.00 | 45 | 1012.0 |
| 20260508182004 | 20 | 243 | 11.3 | 24.1 | 0.00 | 0.00 | 0.00 | 45 | 1012.2 |
| 20260508181504 | 20 | 230 | 17.7 | 25.7 | 0.00 | 0.00 | 0.00 | 47 | 1012.4 |
| 20260508181005 | 20 | 219 | 14.5 | 25.7 | 0.00 | 0.00 | 0.00 | 45 | 1012.5 |
| 20260508180504 | 20 | 218 | 19.3 | 30.6 | 0.00 | 0.00 | 0.00 | 44 | 1012.4 |
| 20260508180004 | 20 | 212 | 19.3 | 30.6 | 0.00 | 0.00 | 0.00 | 44 | 1012.5 |
| 20260508175504 | 20 | 214 | 8.0 | 22.5 | 0.00 | 0.00 | 0.00 | 45 | 1012.7 |
| 20260508175004 | 20 | 237 | 9.7 | 20.9 | 0.00 | 0.00 | 0.00 | 44 | 1012.8 |
| 20260508174503 | 20 | 240 | 16.1 | 24.1 | 0.00 | 0.00 | 0.00 | 45 | 1012.7 |
| 20260508173504 | 20 | 260 | 12.9 | 27.4 | 0.00 | 0.00 | 0.00 | 45 | 1013.0 |
| 20260508173004 | 20 | 254 | 20.9 | 27.4 | 0.00 | 0.00 | 0.00 | 44 | 1013.1 |
| 20260508172504 | 20 | 234 | 14.5 | 24.1 | 0.00 | 0.00 | 0.00 | 44 | 1013.3 |
| 20260508172003 | 20 | 231 | 14.5 | 24.1 | 0.00 | 0.00 | 0.00 | 46 | 1013.3 |
| 20260508171504 | 20 | 237 | 11.3 | 25.7 | 0.00 | 0.00 | 0.00 | 45 | 1013.1 |
| 20260508171004 | 20 | 251 | 11.3 | 25.7 | 0.00 | 0.00 | 0.00 | 45 | 1013.4 |
| 20260508170503 | 20 | 262 | 20.9 | 25.7 | 0.00 | 0.00 | 0.00 | 45 | 1013.4 |
| 20260508165504 | 20 | 242 | 8.0 | 20.9 | 0.00 | 0.00 | 0.00 | 47 | 1013.6 |
| 20260508165004 | 20 | 215 | 17.7 | 20.9 | 0.00 | 0.00 | 0.00 | 48 | 1013.7 |
| 20260508164504 | 19 | 250 | 11.3 | 20.9 | 0.00 | 0.00 | 0.00 | 52 | 1013.6 |
| 20260508164003 | 19 | 270 | 11.3 | 25.7 | 0.00 | 0.00 | 0.00 | 49 | 1013.8 |
| 20260508163504 | 19 | 247 | 17.7 | 25.7 | 0.00 | 0.00 | 0.00 | 46 | 1013.7 |
| 20260508163004 | 19 | 214 | 11.3 | 25.7 | 0.00 | 0.00 | 0.00 | 47 | 1014.0 |
| 20260508162504 | 18 | 219 | 17.7 | 25.7 | 0.00 | 0.00 | 0.00 | 46 | 1014.1 |
| 20260508162003 | 18 | 243 | 12.9 | 25.7 | 0.00 | 0.00 | 0.00 | 46 | 1014.1 |
| 20260508161504 | 18 | 249 | 17.7 | 25.7 | 0.00 | 0.00 | 0.00 | 46 | 1014.1 |
| 20260508161004 | 18 | 251 | 14.5 | 24.1 | 0.00 | 0.00 | 0.00 | 49 | 1014.0 |
| 20260508160505 | 18 | 239 | 16.1 | 22.5 | 0.00 | 0.00 | 0.00 | 46 | 1014.3 |
| 20260508160004 | 18 | 221 | 16.1 | 22.5 | 0.00 | 0.00 | 0.00 | 46 | 1014.3 |
| 20260508155504 | 18 | 222 | 11.3 | 24.1 | 0.00 | 0.00 | 0.00 | 47 | 1014.2 |
| 20260508155003 | 18 | 231 | 12.9 | 24.1 | 0.00 | 0.00 | 0.00 | 47 | 1014.3 |
| 20260508154504 | 18 | 255 | 11.3 | 17.7 | 0.00 | 0.00 | 0.00 | 47 | 1014.3 |
| 20260508154004 | 18 | 257 | 11.3 | 25.7 | 0.00 | 0.00 | 0.00 | 48 | 1014.5 |
| 20260508153004 | 18 | 240 | 16.1 | 22.5 | 0.00 | 0.00 | 0.00 | 49 | 1014.7 |
| 20260508152504 | 18 | 236 | 8.0 | 17.7 | 0.00 | 0.00 | 0.00 | 50 | 1014.7 |
| 20260508152004 | 17 | 250 | 14.5 | 22.5 | 0.00 | 0.00 | 0.00 | 50 | 1014.8 |
| 20260508151503 | 17 | 258 | 8.0 | 22.5 | 0.00 | 0.00 | 0.00 | 50 | 1014.7 |
| 20260508151004 | 17 | 246 | 12.9 | 24.1 | 0.00 | 0.00 | 0.00 | 51 | 1014.9 |
| 20260508150503 | 17 | 244 | 14.5 | 24.1 | 0.00 | 0.00 | 0.00 | 51 | 1014.9 |
| 20260508150004 | 17 | 231 | 11.3 | 24.1 | 0.00 | 0.00 | 0.00 | 52 | 1014.9 |
| 20260508145504 | 17 | 233 | 12.9 | 24.1 | 0.00 | 0.00 | 0.00 | 51 | 1015.0 |
| 20260508145004 | 17 | 249 | 19.3 | 24.1 | 0.00 | 0.00 | 0.00 | 52 | 1015.0 |
| 20260508144504 | 17 | 232 | 12.9 | 20.9 | 0.00 | 0.00 | 0.00 | 50 | 1015.0 |
| 20260508144004 | 16 | 207 | 12.9 | 22.5 | 0.00 | 0.00 | 0.00 | 51 | 1015.0 |
| 20260508143505 | 16 | 218 | 16.1 | 22.5 | 0.00 | 0.00 | 0.00 | 53 | 1015.2 |
| 20260508143004 | 16 | 251 | 17.7 | 24.1 | 0.00 | 0.00 | 0.00 | 52 | 1015.2 |
| 20260508142504 | 16 | 250 | 12.9 | 24.1 | 0.00 | 0.00 | 0.00 | 51 | 1015.0 |
| 20260508142004 | 16 | 235 | 17.7 | 24.1 | 0.00 | 0.00 | 0.00 | 51 | 1015.3 |
| 20260508141505 | 16 | 234 | 17.7 | 20.9 | 0.00 | 0.00 | 0.00 | 52 | 1015.1 |
| 20260508140504 | 15 | 234 | 8.0 | 22.5 | 0.00 | 0.00 | 0.00 | 51 | 1015.4 |
| 20260508140004 | 15 | 232 | 14.5 | 20.9 | 0.00 | 0.00 | 0.00 | 52 | 1015.2 |
| 20260508135504 | 15 | 231 | 12.9 | 17.7 | 0.00 | 0.00 | 0.00 | 52 | 1015.1 |
| 20260508134504 | 15 | 236 | 17.7 | 17.7 | 0.00 | 0.00 | 0.00 | 54 | 1015.2 |
| 20260508134005 | 15 | 241 | 12.9 | 17.7 | 0.00 | 0.00 | 0.00 | 54 | 1015.3 |
| 20260508133004 | 14 | 224 | 8.0 | 14.5 | 0.00 | 0.00 | 0.00 | 55 | 1015.2 |
| 20260508132504 | 13 | 220 | 4.8 | 16.1 | 0.00 | 0.00 | 0.00 | 60 | 1015.2 |
| 20260508132005 | 13 | 221 | 8.0 | 16.1 | 0.00 | 0.00 | 0.00 | 56 | 1015.2 |
| 20260508131505 | 13 | 223 | 8.0 | 16.1 | 0.00 | 0.00 | 0.00 | 58 | 1015.2 |
| 20260508131004 | 12 | 223 | 8.0 | 14.5 | 0.00 | 0.00 | 0.00 | 58 | 1015.2 |
| 20260508130504 | 12 | 228 | 11.3 | 14.5 | 0.00 | 0.00 | 0.00 | 63 | 1015.3 |
| 20260508130005 | 12 | 223 | 4.8 | 11.3 | 0.00 | 0.00 | 0.00 | 66 | 1015.1 |
| 20260508125504 | 11 | 223 | 6.4 | 11.3 | 0.00 | 0.00 | 0.00 | 68 | 1015.3 |
| 20260508125004 | 11 | 233 | 8.0 | 11.3 | 0.00 | 0.00 | 0.00 | 67 | 1015.2 |
| 20260508124503 | 10 | 228 | 8.0 | 11.3 | 0.00 | 0.00 | 0.00 | 68 | 1015.3 |
| 20260508124005 | 10 | 233 | 6.4 | 11.3 | 0.00 | 0.00 | 0.00 | 69 | 1015.2 |
| 20260508123504 | 10 | 220 | 6.4 | 11.3 | 0.00 | 0.00 | 0.00 | 71 | 1015.3 |
| 20260508123004 | 9 | 203 | 4.8 | 11.3 | 0.00 | 0.00 | 0.00 | 71 | 1015.1 |
| 20260508122504 | 9 | 203 | 4.8 | 11.3 | 0.00 | 0.00 | 0.00 | 73 | 1015.2 |
| 20260508121505 | 8 | 226 | 4.8 | 9.7 | 0.00 | 0.00 | 0.00 | 74 | 1014.9 |
| 20260508121004 | 7 | 220 | 4.8 | 8.0 | 0.00 | 0.00 | 0.00 | 75 | 1015.2 |
| 20260508120504 | 7 | 217 | 4.8 | 6.4 | 0.00 | 0.00 | 0.00 | 75 | 1015.1 |
| 20260508120005 | 7 | 214 | 4.8 | 6.4 | 0.00 | 0.00 | 0.00 | 75 | 1015.1 |
| 20260508115504 | 7 | 210 | 4.8 | 6.4 | 0.00 | 0.00 | 0.00 | 75 | 1014.9 |
| 20260508115004 | 7 | 210 | 3.2 | 6.4 | 0.00 | 0.00 | 0.00 | 75 | 1014.9 |
| 20260508114504 | 7 | 222 | 4.8 | 4.8 | 0.00 | 0.00 | 0.00 | 75 | 1014.9 |
| 20260508114004 | 7 | 213 | 1.6 | 4.8 | 0.00 | 0.00 | 0.00 | 75 | 1015.0 |
| 20260508113504 | 7 | 199 | 3.2 | 4.8 | 0.00 | 0.00 | 0.00 | 80 | 1014.9 |
| 20260508113004 | 7 | 205 | 3.2 | 4.8 | 0.00 | 0.00 | 0.00 | 80 | 1014.8 |
| 20260508112504 | 7 | 195 | 3.2 | 6.4 | 0.00 | 0.00 | 0.00 | 80 | 1014.6 |
| 20260508112005 | 7 | 201 | 3.2 | 6.4 | 0.00 | 0.00 | 0.00 | 80 | 1014.8 |
| 20260508111505 | 7 | 209 | 4.8 | 6.4 | 0.00 | 0.00 | 0.00 | 81 | 1014.8 |
| 20260508111004 | 6 | 207 | 4.8 | 4.8 | 0.00 | 0.00 | 0.00 | 81 | 1014.6 |
| 20260508110503 | 6 | 210 | 1.6 | 4.8 | 0.00 | 0.00 | 0.00 | 82 | 1014.9 |
| 20260508110004 | 6 | 210 | 3.2 | 6.4 | 0.00 | 0.00 | 0.00 | 84 | 1014.5 |
| 20260508105504 | 6 | 207 | 3.2 | 6.4 | 0.00 | 0.00 | 0.00 | 85 | 1014.6 |
| 20260508105004 | 6 | 214 | 4.8 | 6.4 | 0.00 | 0.00 | 0.00 | 86 | 1014.6 |
| 20260508104504 | 5 | 230 | 3.2 | 4.8 | 0.00 | 0.00 | 0.00 | 86 | 1014.5 |
| 20260508104005 | 5 | 245 | 1.6 | 1.6 | 0.00 | 0.00 | 0.00 | 85 | 1014.4 |
| 20260508103504 | 5 | 245 | 0.0 | 1.6 | 0.00 | 0.00 | 0.00 | 85 | 1014.5 |
| 20260508103004 | 5 | 243 | 0.0 | 1.6 | 0.00 | 0.00 | 0.00 | 84 | 1014.4 |
| 20260508102504 | 5 | 251 | 0.0 | 4.8 | 0.00 | 0.00 | 0.00 | 84 | 1014.5 |
| 20260508102005 | 5 | 235 | 1.6 | 4.8 | 0.00 | 0.00 | 0.00 | 84 | 1014.5 |
| 20260508100504 | 5 | 261 | 0.0 | 1.6 | 0.00 | 0.00 | 0.00 | 85 | 1014.4 |
| 20260508100004 | 5 | 261 | 0.0 | 1.6 | 0.00 | 0.00 | 0.00 | 85 | 1014.3 |
| 20260508094505 | 4 | 205 | 1.6 | 3.2 | 0.00 | 0.00 | 0.00 | 88 | 1014.2 |
| 20260508094004 | 4 | 229 | 0.0 | 1.6 | 0.00 | 0.00 | 0.00 | 88 | 1014.3 |
| 20260508093503 | 4 | 201 | 0.0 | 1.6 | 0.00 | 0.00 | 0.00 | 87 | 1014.3 |
| 20260508093004 | 4 | 187 | 0.0 | 1.6 | 0.00 | 0.00 | 0.00 | 87 | 1014.3 |
| 20260508092504 | 4 | 217 | 0.0 | 1.6 | 0.00 | 0.00 | 0.00 | 87 | 1014.2 |
| 20260508091503 | 4 | 0 | 0.0 | 0.0 | 0.00 | 0.00 | 0.00 | 87 | 1014.4 |
| 20260508091005 | 4 | 0 | 0.0 | 0.0 | 0.00 | 0.00 | 0.00 | 87 | 1014.5 |
| 20260508090504 | 4 | 209 | 0.0 | 1.6 | 0.00 | 0.00 | 0.00 | 86 | 1014.5 |
| 20260508090004 | 4 | 212 | 0.0 | 1.6 | 0.00 | 0.00 | 0.00 | 86 | 1014.3 |
| 20260508085503 | 4 | 217 | 1.6 | 1.6 | 0.00 | 0.00 | 0.00 | 86 | 1014.2 |
| 20260508085004 | 4 | 217 | 0.0 | 1.6 | 0.00 | 0.00 | 0.00 | 86 | 1014.5 |
| 20260508084504 | 4 | 217 | 0.0 | 1.6 | 0.00 | 0.00 | 0.00 | 87 | 1014.4 |
| 20260508084004 | 4 | 217 | 0.0 | 1.6 | 0.00 | 0.00 | 0.00 | 86 | 1014.2 |
| 20260508083004 | 4 | 217 | 0.0 | 1.6 | 0.00 | 0.00 | 0.00 | 86 | 1014.5 |
| 20260508082504 | 4 | 217 | 0.0 | 1.6 | 0.00 | 0.00 | 0.00 | 85 | 1014.3 |
| 20260508082004 | 4 | 217 | 0.0 | 1.6 | 0.00 | 0.00 | 0.00 | 85 | 1014.1 |
| 20260508081505 | 4 | 0 | 0.0 | 0.0 | 0.00 | 0.00 | 0.00 | 85 | 1014.2 |
| 20260508081004 | 4 | 0 | 0.0 | 0.0 | 0.00 | 0.00 | 0.00 | 85 | 1014.2 |
| 20260508080504 | 5 | 0 | 0.0 | 0.0 | 0.00 | 0.00 | 0.00 | 85 | 1013.9 |
| 20260508080005 | 5 | 0 | 0.0 | 0.0 | 0.00 | 0.00 | 0.00 | 85 | 1014.0 |
| 20260508074505 | 4 | 0 | 0.0 | 0.0 | 0.00 | 0.00 | 0.00 | 85 | 1014.1 |
| 20260508074006 | 4 | 261 | 0.0 | 1.6 | 0.00 | 0.00 | 0.00 | 85 | 1014.1 |
| 20260508073504 | 5 | 220 | 0.0 | 1.6 | 0.00 | 0.00 | 0.00 | 85 | 1014.2 |
| 20260508073004 | 5 | 212 | 0.0 | 1.6 | 0.00 | 0.00 | 0.00 | 85 | 1014.1 |
| 20260508072503 | 5 | 217 | 0.0 | 1.6 | 0.00 | 0.00 | 0.00 | 84 | 1014.2 |
| 20260508072004 | 5 | 217 | 0.0 | 1.6 | 0.00 | 0.00 | 0.00 | 84 | 1014.3 |
| 20260508071504 | 5 | 217 | 0.0 | 1.6 | 0.00 | 0.00 | 0.00 | 84 | 1014.1 |
| 20260508071005 | 5 | 217 | 0.0 | 1.6 | 0.00 | 0.00 | 0.00 | 84 | 1014.1 |
| 20260508070005 | 5 | 261 | 0.0 | 3.2 | 0.00 | 0.00 | 0.00 | 85 | 1014.2 |
| 20260508065504 | 5 | 261 | 0.0 | 3.2 | 0.00 | 0.00 | 0.00 | 86 | 1014.3 |
| 20260508065004 | 5 | 261 | 0.0 | 1.6 | 0.00 | 0.00 | 0.00 | 86 | 1014.6 |
| 20260508064505 | 5 | 239 | 0.0 | 1.6 | 0.00 | 0.00 | 0.00 | 86 | 1014.6 |
| 20260508064005 | 5 | 253 | 0.0 | 1.6 | 0.00 | 0.00 | 0.00 | 87 | 1014.5 |
| 20260508063505 | 5 | 242 | 0.0 | 1.6 | 0.00 | 0.00 | 0.00 | 87 | 1014.7 |
| 20260508063005 | 5 | 223 | 1.6 | 1.6 | 0.00 | 0.00 | 0.00 | 87 | 1014.8 |
| 20260508062004 | 5 | 245 | 0.0 | 1.6 | 0.00 | 0.00 | 0.00 | 86 | 1014.7 |
| 20260508061504 | 5 | 233 | 0.0 | 1.6 | 0.00 | 0.00 | 0.00 | 86 | 1014.8 |
| 20260508061004 | 5 | 217 | 0.0 | 1.6 | 0.00 | 0.00 | 0.00 | 86 | 1014.8 |
| 20260508060504 | 5 | 0 | 0.0 | 0.0 | 0.00 | 0.00 | 0.00 | 85 | 1014.7 |
| 20260508060006 | 5 | 0 | 0.0 | 0.0 | 0.00 | 0.00 | 0.00 | 85 | 1014.6 |
| 20260508055504 | 5 | 0 | 0.0 | 0.0 | 0.00 | 0.00 | 0.00 | 85 | 1014.5 |
| 20260508055005 | 5 | 0 | 0.0 | 0.0 | 0.00 | 0.00 | 0.00 | 85 | 1014.6 |
| 20260508054504 | 5 | 0 | 0.0 | 0.0 | 0.00 | 0.00 | 0.00 | 85 | 1014.5 |
| 20260508054004 | 5 | 0 | 0.0 | 0.0 | 0.00 | 0.00 | 0.00 | 85 | 1014.5 |
| 20260508053504 | 5 | 0 | 0.0 | 0.0 | 0.00 | 0.00 | 0.00 | 85 | 1014.7 |
| 20260508053003 | 5 | 0 | 0.0 | 0.0 | 0.00 | 0.00 | 0.00 | 85 | 1014.8 |
| 20260508052505 | 5 | 0 | 0.0 | 0.0 | 0.00 | 0.00 | 0.00 | 85 | 1014.8 |
| 20260508052004 | 5 | 217 | 0.0 | 1.6 | 0.00 | 0.00 | 0.00 | 85 | 1014.6 |
| 20260508051503 | 5 | 231 | 0.0 | 1.6 | 0.00 | 0.00 | 0.00 | 85 | 1014.7 |
| 20260508051004 | 5 | 220 | 0.0 | 1.6 | 0.00 | 0.00 | 0.00 | 85 | 1014.8 |
| 20260508050505 | 5 | 217 | 0.0 | 1.6 | 0.00 | 0.00 | 0.00 | 84 | 1014.8 |
| 20260508045504 | 5 | 0 | 0.0 | 0.0 | 0.00 | 0.00 | 0.00 | 85 | 1014.7 |
| 20260508045005 | 5 | 0 | 0.0 | 0.0 | 0.00 | 0.00 | 0.00 | 85 | 1014.9 |
| 20260508044504 | 5 | 0 | 0.0 | 0.0 | 0.00 | 0.00 | 0.00 | 86 | 1014.6 |
| 20260508044005 | 5 | 261 | 0.0 | 1.6 | 0.00 | 0.00 | 0.00 | 86 | 1014.5 |
| 20260508043503 | 5 | 261 | 0.0 | 1.6 | 0.00 | 0.00 | 0.00 | 86 | 1014.7 |
| 20260508043005 | 5 | 261 | 0.0 | 1.6 | 0.00 | 0.00 | 0.00 | 86 | 1014.5 |
| 20260508042505 | 5 | 261 | 0.0 | 1.6 | 0.00 | 0.00 | 0.00 | 86 | 1014.6 |
| 20260508042005 | 5 | 261 | 0.0 | 1.6 | 0.00 | 0.00 | 0.00 | 86 | 1014.6 |
| 20260508041004 | 6 | 261 | 0.0 | 1.6 | 0.00 | 0.00 | 0.00 | 85 | 1014.8 |
| 20260508040504 | 6 | 231 | 0.0 | 1.6 | 0.00 | 0.00 | 0.00 | 84 | 1014.8 |
| 20260508040005 | 6 | 246 | 0.0 | 1.6 | 0.00 | 0.00 | 0.00 | 84 | 1014.7 |
| 20260508035503 | 6 | 261 | 0.0 | 1.6 | 0.00 | 0.00 | 0.00 | 84 | 1014.8 |
| 20260508035004 | 6 | 217 | 0.0 | 1.6 | 0.00 | 0.00 | 0.00 | 84 | 1014.7 |
| 20260508034504 | 6 | 217 | 0.0 | 1.6 | 0.00 | 0.00 | 0.00 | 84 | 1014.8 |
| 20260508032004 | 6 | 0 | 0.0 | 0.0 | 0.00 | 0.00 | 0.00 | 81 | 1014.8 |
| 20260508031504 | 6 | 217 | 0.0 | 1.6 | 0.00 | 0.00 | 0.00 | 80 | 1014.8 |
| 20260508031004 | 6 | 217 | 0.0 | 1.6 | 0.00 | 0.00 | 0.00 | 79 | 1014.6 |
| 20260508025504 | 6 | 270 | 0.0 | 1.6 | 0.00 | 0.00 | 0.00 | 79 | 1014.8 |
| 20260508025004 | 7 | 226 | 0.0 | 1.6 | 0.00 | 0.00 | 0.00 | 80 | 1014.8 |
| 20260508024505 | 7 | 214 | 0.0 | 1.6 | 0.00 | 0.00 | 0.00 | 78 | 1014.5 |
| 20260508024004 | 7 | 213 | 0.0 | 1.6 | 0.00 | 0.00 | 0.00 | 77 | 1014.7 |
| 20260508023504 | 7 | 261 | 0.0 | 1.6 | 0.00 | 0.00 | 0.00 | 76 | 1014.7 |
| 20260508022503 | 7 | 219 | 0.0 | 1.6 | 0.00 | 0.00 | 0.00 | 73 | 1014.4 |
| 20260508022004 | 7 | 217 | 0.0 | 1.6 | 0.00 | 0.00 | 0.00 | 70 | 1014.6 |
| 20260508021505 | 7 | 217 | 0.0 | 1.6 | 0.00 | 0.00 | 0.00 | 69 | 1014.9 |
| 20260508021004 | 7 | 217 | 0.0 | 1.6 | 0.00 | 0.00 | 0.00 | 70 | 1014.8 |
| 20260508020505 | 8 | 0 | 0.0 | 0.0 | 0.00 | 0.00 | 0.00 | 68 | 1014.8 |
| 20260508020004 | 8 | 261 | 0.0 | 1.6 | 0.00 | 0.00 | 0.00 | 68 | 1014.7 |
| 20260508015504 | 8 | 261 | 0.0 | 1.6 | 0.00 | 0.00 | 0.00 | 67 | 1014.6 |
| 20260508014504 | 8 | 224 | 0.0 | 1.6 | 0.00 | 0.00 | 0.00 | 65 | 1014.6 |
| 20260508014004 | 8 | 0 | 0.0 | 0.0 | 0.00 | 0.00 | 0.00 | 64 | 1014.5 |
| 20260508013505 | 9 | 0 | 0.0 | 0.0 | 0.00 | 0.00 | 0.00 | 62 | 1014.4 |
| 20260508013005 | 9 | 0 | 0.0 | 0.0 | 0.00 | 0.00 | 0.00 | 63 | 1014.7 |
| 20260508012504 | 10 | 217 | 0.0 | 1.6 | 0.00 | 0.00 | 0.00 | 63 | 1014.6 |
| 20260508012004 | 10 | 217 | 0.0 | 1.6 | 0.00 | 0.00 | 0.00 | 63 | 1014.4 |
| 20260508011507 | 10 | 0 | 0.0 | 0.0 | 0.00 | 0.00 | 0.00 | 60 | 1014.4 |
| 20260508011004 | 10 | 0 | 0.0 | 0.0 | 0.00 | 0.00 | 0.00 | 58 | 1014.4 |
| 20260508010504 | 10 | 0 | 0.0 | 0.0 | 0.00 | 0.00 | 0.00 | 57 | 1014.3 |
| 20260508010004 | 11 | 0 | 0.0 | 0.0 | 0.00 | 0.00 | 0.00 | 56 | 1014.2 |
| 20260508005504 | 11 | 0 | 0.0 | 0.0 | 0.00 | 0.00 | 0.00 | 56 | 1014.2 |
| 20260508005004 | 11 | 217 | 0.0 | 1.6 | 0.00 | 0.00 | 0.00 | 55 | 1014.3 |
| 20260508004505 | 12 | 239 | 0.0 | 1.6 | 0.00 | 0.00 | 0.00 | 54 | 1014.5 |
| 20260508004005 | 12 | 276 | 1.6 | 4.8 | 0.00 | 0.00 | 0.00 | 45 | 1014.2 |
| 20260508003503 | 12 | 288 | 1.6 | 4.8 | 0.00 | 0.00 | 0.00 | 44 | 1014.2 |
| 20260508003005 | 13 | 291 | 1.6 | 4.8 | 0.00 | 0.00 | 0.00 | 44 | 1014.2 |
| 20260508002504 | 13 | 305 | 1.6 | 4.8 | 0.00 | 0.00 | 0.00 | 40 | 1014.0 |
| 20260508002004 | 13 | 308 | 3.2 | 4.8 | 0.00 | 0.00 | 0.00 | 39 | 1014.1 |
| 20260508001504 | 14 | 313 | 0.0 | 4.8 | 0.00 | 0.00 | 0.00 | 38 | 1014.1 |
| 20260508001004 | 14 | 315 | 1.6 | 4.8 | 0.00 | 0.00 | 0.00 | 39 | 1013.9 |
| 20260508000504 | 14 | 309 | 1.6 | 4.8 | 0.00 | 0.00 | 0.00 | 40 | 1013.9 |
| 20260508000004 | 14 | 312 | 1.6 | 4.8 | 0.00 | 0.00 | 0.00 | 40 | 1013.9 |
| 20260507235504 | 14 | 319 | 1.6 | 3.2 | 0.00 | 0.00 | 0.00 | 40 | 1013.8 |
| 20260507234505 | 15 | 342 | 0.0 | 6.4 | 0.00 | 0.00 | 0.00 | 40 | 1013.7 |
| 20260507234004 | 15 | 329 | 3.2 | 6.4 | 0.00 | 0.00 | 0.00 | 37 | 1013.8 |
| 20260507233504 | 15 | 304 | 0.0 | 4.8 | 0.00 | 0.00 | 0.00 | 38 | 1013.6 |
| 20260507233004 | 15 | 312 | 0.0 | 4.8 | 0.00 | 0.00 | 0.00 | 40 | 1013.7 |
| 20260507232004 | 15 | 345 | 1.6 | 4.8 | 0.00 | 0.00 | 0.00 | 39 | 1014.0 |
| 20260507231004 | 15 | 307 | 1.6 | 4.8 | 0.00 | 0.00 | 0.00 | 38 | 1014.1 |
| 20260507230505 | 15 | 300 | 0.0 | 8.0 | 0.00 | 0.00 | 0.00 | 38 | 1013.8 |
| 20260507230005 | 15 | 308 | 3.2 | 9.7 | 0.00 | 0.00 | 0.00 | 38 | 1013.8 |
| 20260507225504 | 15 | 312 | 8.0 | 12.9 | 0.00 | 0.00 | 0.00 | 37 | 1013.9 |
| 20260507225004 | 15 | 308 | 4.8 | 12.9 | 0.00 | 0.00 | 0.00 | 36 | 1013.8 |
| 20260507224505 | 15 | 293 | 11.3 | 12.9 | 0.00 | 0.00 | 0.00 | 38 | 1013.8 |
| 20260507224004 | 15 | 331 | 4.8 | 16.1 | 0.00 | 0.00 | 0.00 | 38 | 1013.7 |
| 20260507223504 | 15 | 343 | 4.8 | 16.1 | 0.00 | 0.00 | 0.00 | 36 | 1013.9 |
| 20260507222504 | 15 | 319 | 11.3 | 17.7 | 0.00 | 0.00 | 0.00 | 38 | 1013.8 |
| 20260507222004 | 15 | 323 | 9.7 | 12.9 | 0.00 | 0.00 | 0.00 | 38 | 1013.7 |
| 20260507221504 | 15 | 324 | 8.0 | 14.5 | 0.00 | 0.00 | 0.00 | 39 | 1014.1 |
| 20260507221004 | 15 | 325 | 9.7 | 16.1 | 0.00 | 0.00 | 0.00 | 37 | 1014.0 |
| 20260507220004 | 15 | 301 | 12.9 | 14.5 | 0.00 | 0.00 | 0.00 | 39 | 1014.0 |
| 20260507215503 | 15 | 295 | 1.6 | 11.3 | 0.00 | 0.00 | 0.00 | 40 | 1013.9 |
| 20260507215004 | 15 | 321 | 6.4 | 12.9 | 0.00 | 0.00 | 0.00 | 41 | 1013.8 |
| 20260507214504 | 15 | 356 | 8.0 | 14.5 | 0.00 | 0.00 | 0.00 | 37 | 1013.9 |
| 20260507214004 | 15 | 354 | 9.7 | 14.5 | 0.00 | 0.00 | 0.00 | 38 | 1013.7 |
| 20260507213503 | 15 | 342 | 4.8 | 12.9 | 0.00 | 0.00 | 0.00 | 37 | 1013.5 |
| 20260507213004 | 15 | 330 | 9.7 | 12.9 | 0.00 | 0.00 | 0.00 | 37 | 1014.1 |
| 20260507212504 | 15 | 337 | 1.6 | 9.7 | 0.00 | 0.00 | 0.00 | 39 | 1013.7 |
| 20260507212005 | 15 | 321 | 4.8 | 12.9 | 0.00 | 0.00 | 0.00 | 39 | 1013.8 |
| 20260507211503 | 15 | 315 | 8.0 | 12.9 | 0.00 | 0.00 | 0.00 | 41 | 1013.9 |
| 20260507211004 | 15 | 300 | 0.0 | 17.7 | 0.00 | 0.00 | 0.00 | 38 | 1013.6 |
| 20260507210504 | 15 | 297 | 8.0 | 17.7 | 0.00 | 0.00 | 0.00 | 38 | 1013.5 |
| 20260507205504 | 15 | 357 | 6.4 | 14.5 | 0.00 | 0.00 | 0.00 | 41 | 1013.7 |
| 20260507205004 | 16 | 339 | 8.0 | 14.5 | 0.00 | 0.00 | 0.00 | 38 | 1013.7 |
| 20260507204505 | 15 | 329 | 8.0 | 14.5 | 0.00 | 0.00 | 0.00 | 41 | 1013.7 |
| 20260507204004 | 16 | 322 | 11.3 | 14.5 | 0.00 | 0.00 | 0.00 | 39 | 1013.5 |
| 20260507203504 | 16 | 315 | 6.4 | 14.5 | 0.00 | 0.00 | 0.00 | 40 | 1013.6 |
| 20260507203004 | 16 | 323 | 8.0 | 12.9 | 0.00 | 0.00 | 0.00 | 44 | 1013.5 |
| 20260507202504 | 15 | 336 | 9.7 | 14.5 | 0.00 | 0.00 | 0.00 | 41 | 1013.5 |